Theta_e
311 311 312 312 311 311 306 304 295 311 317 299 300 293 300 303 303 305 302 304 302 299 299 298 298 295 297 299 299 296 296 294 287 291 295 295 291 290 291 285 284 287 284 283
310 311 311 311 310 309 302 300 299 307 310 289 291 297 300 303 303 302 301 303 306 304 299 296 297 296 300 300 299 297 294 291 286 288 291 293 290 292 292 292 288 284 279 282
310 310 310 310 310 308 304 301 291 297 300 299 296 297 298 298 304 302 303 303 303 302 300 301 296 295 299 300 297 299 299 294 290 286 289 292 290 292 291 289 283 284 285 287
310 310 310 310 309 309 303 299 296 295 288 294 296 300 300 298 298 302 302 301 302 301 297 298 295 296 296 299 297 297 297 290 293 294 294 294 291 290 290 288 288 284 287 288
310 310 310 310 309 308 299 297 296 298 297 296 296 296 298 298 298 299 299 298 302 303 299 300 295 295 296 294 294 295 296 289 292 289 294 294 291 291 290 290 290 289 289 287
309 310 309 309 309 307 299 301 304 300 296 295 294 295 301 299 300 301 303 303 301 298 300 302 301 302 301 298 294 294 293 291 288 286 293 290 285 291 291 291 291 290 285 290
309 309 308 308 308 308 304 303 303 299 291 296 295 301 301 300 301 299 301 305 300 302 305 304 302 301 301 300 299 300 295 292 290 283 287 274 291 294 293 291 292 291 293 294
309 308 308 307 307 308 308 307 306 301 291 297 297 300 299 300 299 298 298 302 304 304 303 296 291 291 294 297 298 296 297 294 284 279 280 287 291 291 291 289 288 293 292 293
308 307 307 307 307 307 307 303 309 306 295 294 298 299 300 295 293 294 298 303 305 303 299 291 284 283 290 289 292 297 297 295 288 279 276 276 289 293 296 293 282 294 295 293
307 307 307 307 307 307 308 303 311 306 293 296 298 298 297 300 297 293 296 297 297 300 294 289 285 286 296 287 288 288 289 289 283 281 277 285 296 294 296 282 284 293 293 294
307 307 307 307 307 307 305 305 310 306 292 294 298 299 298 301 298 292 295 293 293 293 292 291 289 287 292 290 295 290 288 284 282 284 280 278 295 293 287 293 294 294 295 294
306 306 307 306 306 306 306 301 307 306 298 293 299 300 302 301 301 298 297 297 297 297 294 294 293 288 291 290 285 295 286 291 288 289 287 295 296 296 296 296 295 295 295 295
306 306 306 306 306 306 305 301 306 303 295 292 294 294 300 304 303 305 298 299 302 299 302 299 295 289 294 286 288 292 294 296 290 290 293 294 296 298 297 297 296 296 297 296
305 306 306 306 306 306 306 300 309 302 295 287 290 303 299 305 304 304 305 303 305 304 298 290 287 287 297 290 293 290 293 294 291 290 294 296 296 295 297 296 297 296 297 296
305 305 305 306 306 307 306 305 307 308 296 287 287 297 301 305 304 305 306 304 302 298 289 286 287 294 292 292 290 288 293 292 287 285 296 295 295 296 298 295 295 295 295 294
304 305 305 305 306 305 305 297 305 306 302 292 286 295 298 301 302 301 301 303 302 301 296 292 294 296 293 286 284 295 296 297 298 294 298 296 296 296 297 295 295 296 296 295
303 303 304 305 304 302 298 294 300 304 304 289 286 284 295 299 300 299 298 301 299 299 293 290 292 291 295 287 285 295 295 297 298 298 296 292 295 292 296 295 296 295 293 292
303 303 304 304 304 303 298 301 301 304 301 296 286 286 289 298 292 291 299 296 294 292 292 292 291 291 290 284 294 297 296 296 296 296 297 294 295 295 295 295 294 290 288 287
303 303 303 301 297 294 296 303 302 305 297 287 286 284 283 297 292 294 293 295 286 293 286 291 291 285 283 290 293 293 294 292 292 294 295 294 291 292 293 293 289 286 284 284
303 299 292 286 293 299 301 295 289 289 292 294 287 292 284 293 291 288 287 288 285 283 287 291 284 285 295 294 294 294 293 293 290 285 286 288 288 290 291 291 289 287 285 283
295 288 287 296 298 298 293 286 285 287 286 289 289 290 288 296 287 285 289 284 285 281 285 284 282 282 289 293 292 292 292 292 290 288 288 289 291 291 289 289 287 284 283 281
295 295 297 295 293 289 285 284 287 286 284 287 288 288 291 291 293 287 288 285 285 282 288 282 279 286 292 292 291 291 291 290 287 286 286 288 290 293 289 284 284 283 283 282
298 294 289 288 287 282 281 279 282 281 287 289 289 285 289 290 292 286 285 282 280 288 280 280 284 291 292 291 290 289 290 288 286 286 286 286 285 286 286 284 283 280 280 282
290 286 282 283 282 283 284 284 285 289 291 290 289 286 286 288 284 284 282 285 285 278 273 282 287 290 290 289 288 287 285 285 285 284 284 284 284 283 284 283 277 278 280 281
287 287 281 284 287 289 289 291 290 292 293 291 289 288 288 284 284 285 284 281 278 280 282 285 287 288 289 288 287 286 285 284 283 284 283 283 283 282 281 281 282 282 281 280
289 288 285 288 287 287 289 290 289 293 292 293 291 286 283 283 283 282 281 280 279 282 285 287 288 288 288 287 288 287 285 286 284 282 283 283 283 282 282 282 282 280 280 280
289 285 289 288 287 288 289 290 290 294 291 285 287 283 283 286 282 282 282 282 283 285 286 286 289 289 287 287 287 286 289 290 290 286 284 283 283 282 282 281 281 281 281 280
Wind_Speed
9 8 10 13 15 14 9 4 2 4 2 4 4 6 6 7 16 2 4 2 4 10 12 8 4 5 4 5 3 3 1 3 4 3 4 4 1 0 2 5 5 1 4 6
10 9 10 12 16 19 4 4 4 3 4 6 7 6 11 11 8 9 3 1 2 6 9 7 7 6 6 9 5 3 3 1 3 3 4 3 1 4 3 1 4 2 4 6
12 11 10 12 16 22 1 3 4 2 1 4 8 7 10 18 9 11 5 3 4 5 8 7 6 5 4 6 4 2 1 2 4 6 2 3 2 3 2 4 3 4 6 4
14 13 12 12 13 17 3 1 5 8 6 10 8 2 6 13 8 2 2 1 3 5 7 7 7 6 5 5 3 3 4 2 4 4 6 5 3 5 5 5 6 6 7 4
15 14 14 14 14 11 2 3 4 3 4 9 12 4 8 10 3 5 4 5 3 6 5 5 7 9 5 5 1 3 3 1 4 3 6 7 7 5 6 6 7 8 7 6
17 16 13 15 13 8 3 4 3 4 4 13 9 6 8 8 8 3 5 6 12 17 4 11 9 5 7 9 8 4 4 3 4 3 7 6 6 5 2 2 5 3 2 7
18 17 14 14 19 12 1 5 2 2 3 9 16 7 11 10 5 7 5 7 7 4 6 10 10 12 10 10 7 4 4 2 3 2 5 2 7 2 4 2 5 5 8 9
20 18 16 15 17 21 7 5 1 2 2 8 16 10 5 7 9 6 4 6 1 9 6 7 7 6 4 4 5 6 5 3 4 4 2 7 4 3 2 3 4 6 8 13
22 19 17 17 18 20 7 6 6 1 4 2 3 7 10 6 5 4 4 5 6 5 5 5 5 5 6 4 3 4 4 6 6 4 4 5 3 4 5 3 4 8 8 8
22 21 19 18 18 14 6 7 3 2 4 3 5 4 5 6 7 5 2 1 4 4 3 4 4 3 7 6 8 6 2 2 4 3 2 7 7 6 1 4 6 4 6 5
22 21 21 19 17 18 8 9 6 1 4 4 6 6 5 5 5 7 6 6 5 3 5 5 3 4 4 4 6 8 7 6 3 3 2 6 4 4 2 5 3 6 8 8
25 22 20 18 16 18 13 6 2 5 6 3 1 5 7 5 3 5 1 4 5 6 5 2 4 2 2 5 2 6 3 7 7 8 7 5 3 8 5 6 4 4 8 9
25 23 20 20 21 18 16 3 3 4 4 3 5 5 7 7 4 3 5 2 3 4 2 4 2 4 3 3 2 3 3 4 4 5 1 2 7 6 7 6 6 7 7 9
24 24 22 20 20 20 19 8 4 4 6 7 4 3 4 8 6 3 2 6 6 7 5 5 3 4 0 1 3 5 4 4 5 1 3 5 8 6 6 8 8 9 8 7
24 24 24 23 20 21 7 10 5 3 7 7 2 2 8 6 3 6 7 8 7 4 5 4 1 0 4 2 4 1 2 5 5 6 4 6 3 5 6 8 7 7 10 9
26 23 22 23 24 16 9 1 4 3 3 9 4 4 7 8 9 13 9 4 5 4 3 3 3 2 4 4 2 5 2 6 5 6 4 8 5 5 7 8 8 8 8 13
25 26 25 25 24 6 5 6 3 2 3 8 5 2 4 4 3 3 4 8 4 5 3 2 3 2 4 3 3 2 8 9 9 8 7 6 7 3 8 11 14 18 15 12
26 25 24 21 17 10 2 4 5 4 8 6 6 2 3 3 1 2 4 3 4 5 2 3 3 3 3 1 6 6 8 8 8 8 8 5 5 7 9 8 13 14 12 10
28 27 20 6 5 3 3 7 7 1 7 6 4 6 5 2 1 3 5 4 4 2 2 1 4 0 2 6 2 9 6 6 6 8 9 8 5 6 8 10 12 14 9 9
25 9 5 2 0 6 4 7 6 8 5 4 4 4 3 5 3 2 3 2 2 2 4 3 4 2 3 10 10 7 7 7 6 6 5 5 2 4 6 8 9 11 8 9
4 4 3 3 8 4 4 4 5 1 4 2 2 4 9 2 5 3 2 2 0 3 3 5 2 2 5 8 10 7 7 7 7 6 4 3 3 5 7 10 10 9 9 8
6 11 5 3 2 2 6 3 4 3 5 3 7 5 4 3 5 5 2 3 2 2 2 5 0 2 9 10 9 7 7 8 10 7 6 6 7 6 11 10 10 8 10 9
4 4 5 3 3 4 6 6 4 5 4 4 5 5 4 4 4 3 3 3 3 4 3 3 2 6 9 9 6 7 8 9 9 6 5 6 8 9 11 11 9 9 9 8
4 4 5 4 3 4 0 5 6 4 10 11 7 4 5 3 4 4 5 2 4 3 3 3 2 8 7 7 5 5 5 8 6 7 7 7 8 9 8 8 7 8 9 7
4 5 6 4 2 4 7 9 10 11 10 7 6 5 5 2 4 2 4 3 3 3 3 3 3 7 5 4 5 5 5 5 5 5 6 6 6 7 7 6 6 7 7 7
4 7 6 5 12 11 11 10 10 7 6 3 4 5 4 3 5 4 4 6 3 4 3 3 5 5 4 5 5 5 6 5 5 5 6 6 7 7 6 5 6 5 6 7
5 5 8 8 7 9 6 4 2 3 2 2 3 5 3 4 3 4 4 3 4 6 4 3 5 5 4 5 5 3 1 5 7 6 6 6 7 8 8 7 6 7 8 5
Wind_Direction
195 188 184 176 162 183 137 161 152 269 44 138 214 221 197 280 276 233 297 97 164 163 166 188 150 120 107 24 117 60 62 115 155 186 111 76 49 221 100 122 288 220 163 263
192 190 182 182 166 176 149 159 131 326 62 186 229 252 221 249 277 243 257 260 250 194 161 96 100 93 12 33 60 114 14 293 107 53 7 4 225 208 196 134 92 214 120 263
186 199 183 186 175 207 157 157 116 89 225 269 203 186 243 234 258 234 240 262 28 88 88 86 128 101 57 46 71 297 65 10 140 177 224 161 196 182 214 174 147 221 227 224
186 199 200 183 189 205 313 271 185 172 194 227 224 252 222 225 228 169 181 175 193 157 109 91 101 80 100 67 23 33 81 122 16 342 353 348 292 254 290 281 239 187 237 266
187 195 199 189 189 139 301 196 152 130 174 214 208 204 259 190 163 138 192 125 232 95 115 148 153 134 147 168 192 122 30 199 53 320 280 285 268 266 270 267 277 280 276 104
188 192 197 181 174 131 156 261 267 106 197 188 192 213 244 201 125 346 20 61 98 75 29 103 114 131 129 137 138 140 114 118 89 263 4 24 336 279 233 293 347 262 174 152
188 192 191 180 169 182 223 242 122 112 210 176 201 209 222 184 157 123 1 85 98 171 153 69 43 51 68 90 53 94 131 126 98 231 27 24 241 121 74 11 302 14 108 143
186 187 189 182 182 192 204 305 10 182 197 185 199 233 126 75 60 71 60 348 306 150 72 69 62 4 49 74 63 31 63 109 73 114 215 289 339 42 69 93 338 319 117 117
187 191 190 187 185 198 214 276 316 283 138 242 338 150 146 137 106 58 21 340 1 58 84 83 127 166 171 143 92 353 83 81 106 61 131 228 222 96 55 57 353 13 89 127
187 193 191 197 177 194 193 233 245 45 114 9 329 137 153 120 94 91 97 343 32 29 97 94 128 195 162 157 163 173 114 74 151 140 217 285 261 138 125 94 230 41 53 62
188 194 190 187 172 175 185 232 243 175 103 28 340 20 36 61 95 138 190 68 332 24 76 112 196 120 212 129 160 180 139 134 189 158 211 281 134 76 127 203 33 72 84 108
189 190 179 169 175 173 183 236 283 84 75 145 246 89 57 48 35 122 174 176 163 185 96 103 109 68 76 165 224 87 145 169 175 164 216 208 122 130 124 95 84 92 107 130
185 189 181 170 169 177 181 247 260 69 96 22 35 359 330 7 3 262 118 326 171 73 158 114 91 122 116 157 207 78 111 121 127 73 132 157 139 135 131 122 96 69 124 115
183 185 181 178 168 176 192 215 260 97 113 94 310 346 4 311 319 289 212 137 69 85 54 74 104 131 72 188 166 119 195 90 149 177 339 79 34 39 143 105 89 86 78 91
181 181 181 177 178 179 182 235 260 205 127 134 175 323 336 334 306 56 44 78 75 59 63 70 161 121 72 347 58 27 158 186 138 206 184 128 87 27 85 115 113 108 104 79
172 172 172 169 182 145 193 248 316 293 133 98 84 280 358 6 33 51 35 49 76 87 120 80 39 5 106 89 146 245 202 80 139 164 88 97 87 49 68 101 99 94 101 104
160 155 163 162 167 173 214 194 197 185 109 90 99 45 309 303 354 25 45 19 55 73 53 72 131 48 74 86 164 198 94 100 95 98 95 60 45 92 88 98 84 85 77 77
147 142 132 138 145 160 32 321 356 302 87 74 96 92 37 354 31 44 22 41 41 10 124 9 79 21 69 194 261 327 101 96 94 97 85 133 101 77 94 101 100 91 90 90
127 120 113 80 38 73 200 311 307 302 103 114 116 137 167 112 51 68 25 74 60 313 85 211 90 140 211 223 118 82 67 97 99 86 98 87 94 112 112 101 101 104 104 98
121 75 69 73 40 10 3 355 18 22 347 40 93 114 133 109 87 68 82 16 142 94 247 77 80 256 69 75 77 87 85 91 84 86 93 101 124 137 127 126 132 131 135 123
65 84 92 124 22 47 52 63 71 271 58 54 82 110 123 50 102 133 92 167 127 109 252 116 164 255 96 90 82 65 67 92 83 100 113 326 180 145 101 100 106 109 111 119
136 106 123 96 116 112 117 143 151 128 158 110 120 127 119 96 96 90 321 98 42 137 165 73 348 175 107 90 78 63 57 90 74 68 75 41 20 109 111 110 113 108 121 121
72 73 90 130 217 95 131 153 104 109 134 125 134 110 121 62 75 86 105 106 193 104 63 169 93 84 74 81 73 77 79 80 83 80 68 70 75 88 114 122 120 124 118 120
80 90 79 88 22 41 307 122 120 121 112 118 118 85 105 107 83 148 111 129 106 103 124 127 78 91 89 90 74 83 77 83 109 110 104 99 95 92 96 111 112 114 119 135
70 62 60 45 239 42 69 79 90 103 114 105 91 63 81 75 97 85 106 122 175 177 123 98 89 76 70 100 121 105 102 114 119 118 112 106 97 97 105 101 106 111 126 135
69 52 88 90 85 72 75 88 102 121 123 104 79 106 104 121 141 111 167 156 115 122 105 130 121 116 122 120 117 130 148 165 155 140 145 146 145 144 123 138 129 135 149 158
53 48 63 69 71 70 68 63 71 126 96 119 119 90 97 124 108 93 31 87 132 137 138 117 105 121 118 95 92 88 212 155 159 148 154 160 155 136 161 157 145 170 177 175